| time (UTC) | temp F | wind direction | speed knots | gust knots | rain 1hr in | rain 24hr in | rain mn in | humidity % | barometer mb |
| 20260502210502 | 61 | 70 | 1.7 | 3.5 | 0.00 | 0.09 | 0.09 | 85 | 1018.5 |
| 20260502210005 | 61 | 110 | 1.7 | 3.5 | 0.00 | 0.09 | 0.09 | 85 | 1018.4 |
| 20260502210003 | 61 | 110 | 1.7 | 3.5 | 0.00 | 0.09 | 0.09 | 85 | 1013.9 |
| 20260502205503 | 61 | 170 | 2.6 | 5.2 | 0.00 | 0.09 | 0.09 | 85 | 1018.4 |
| 20260502205004 | 61 | 103 | 1.7 | 4.3 | 0.00 | 0.09 | 0.09 | 85 | 1014.0 |
| 20260502204504 | 61 | 116 | 2.6 | 7.0 | 0.00 | 0.09 | 0.09 | 85 | 1013.9 |
| 20260502204004 | 61 | 94 | 2.6 | 7.0 | 0.00 | 0.09 | 0.09 | 86 | 1018.3 |
| 20260502204001 | 61 | 94 | 1.7 | 7.0 | 0.00 | 0.09 | 0.09 | 86 | 1013.7 |
| 20260502203502 | 61 | 129 | 1.7 | 4.3 | 0.00 | 0.09 | 0.09 | 86 | 1013.7 |
| 20260502203001 | 61 | 127 | 0.9 | 4.3 | 0.01 | 0.09 | 0.09 | 87 | 1013.7 |
| 20260502202501 | 61 | 101 | 1.7 | 4.3 | 0.01 | 0.09 | 0.09 | 87 | 1018.2 |
| 20260502202004 | 61 | 119 | 1.7 | 3.5 | 0.01 | 0.09 | 0.09 | 88 | 1018.2 |
| 20260502201502 | 61 | 115 | 1.7 | 3.5 | 0.01 | 0.09 | 0.09 | 88 | 1018.2 |
| 20260502201004 | 61 | 122 | 2.6 | 5.2 | 0.01 | 0.09 | 0.09 | 88 | 1018.1 |
| 20260502201002 | 61 | 122 | 1.7 | 5.2 | 0.01 | 0.09 | 0.09 | 88 | 1013.6 |
| 20260502200502 | 61 | 118 | 2.6 | 6.1 | 0.01 | 0.09 | 0.09 | 87 | 1013.5 |
| 20260502200006 | 61 | 77 | 3.5 | 7.0 | 0.01 | 0.09 | 0.09 | 87 | 1018.0 |
| 20260502200003 | 61 | 77 | 2.6 | 7.0 | 0.01 | 0.09 | 0.09 | 87 | 1013.5 |
| 20260502195501 | 61 | 96 | 3.5 | 7.0 | 0.01 | 0.09 | 0.09 | 86 | 1017.9 |
| 20260502195003 | 62 | 70 | 3.5 | 7.0 | 0.01 | 0.09 | 0.09 | 86 | 1018.0 |
| 20260502194501 | 62 | 81 | 3.5 | 6.1 | 0.01 | 0.09 | 0.09 | 86 | 1018.2 |
| 20260502194000 | 62 | 153 | 2.6 | 5.2 | 0.01 | 0.09 | 0.09 | 86 | 1013.7 |
| 20260502193600 | 62 | 114 | 2.6 | 5.2 | 0.01 | 0.09 | 0.09 | 86 | 1013.8 |
| 20260502193504 | 62 | 110 | 1.7 | 5.2 | 0.00 | 0.08 | 0.08 | 86 | 1013.9 |
| 20260502193002 | 62 | 73 | 2.6 | 4.3 | 0.00 | 0.08 | 0.08 | 85 | 1018.4 |
| 20260502192601 | 62 | 122 | 2.6 | 4.3 | 0.00 | 0.08 | 0.08 | 86 | 1014.0 |
| 20260502192501 | 62 | 69 | 1.7 | 4.3 | 0.00 | 0.08 | 0.08 | 86 | 1018.5 |
| 20260502192003 | 62 | 104 | 0.9 | 3.5 | 0.01 | 0.08 | 0.08 | 87 | 1014.1 |
| 20260502192001 | 62 | 104 | 1.7 | 3.5 | 0.01 | 0.08 | 0.08 | 87 | 1018.6 |
| 20260502191502 | 62 | 85 | 2.6 | 4.3 | 0.01 | 0.08 | 0.08 | 87 | 1018.7 |
| 20260502191002 | 62 | 74 | 1.7 | 4.3 | 0.01 | 0.08 | 0.08 | 88 | 1018.6 |
| 20260502190502 | 62 | 91 | 1.7 | 3.5 | 0.01 | 0.08 | 0.08 | 89 | 1018.6 |
| 20260502190006 | 62 | 77 | 0.9 | 3.5 | 0.01 | 0.08 | 0.08 | 90 | 1018.6 |
| 20260502190004 | 62 | 77 | 0.9 | 3.5 | 0.01 | 0.08 | 0.08 | 90 | 1014.1 |
| 20260502185502 | 62 | 54 | 0.0 | 1.7 | 0.01 | 0.08 | 0.08 | 90 | 1018.7 |
| 20260502185100 | 62 | 65 | 0.0 | 1.7 | 0.01 | 0.08 | 0.08 | 91 | 1014.2 |
| 20260502185002 | 62 | 65 | 0.9 | 1.7 | 0.01 | 0.08 | 0.08 | 91 | 1018.7 |
| 20260502185000 | 62 | 65 | 0.0 | 1.7 | 0.01 | 0.08 | 0.08 | 91 | 1014.2 |
| 20260502184503 | 62 | 310 | 0.9 | 1.7 | 0.01 | 0.08 | 0.08 | 91 | 1018.8 |
| 20260502184500 | 62 | 310 | 0.0 | 1.7 | 0.01 | 0.08 | 0.08 | 91 | 1014.2 |
| 20260502184003 | 62 | 304 | 0.0 | 1.7 | 0.01 | 0.08 | 0.08 | 90 | 1014.2 |
| 20260502183601 | 62 | 346 | 0.0 | 1.7 | 0.01 | 0.08 | 0.08 | 90 | 1014.1 |
| 20260502183501 | 62 | 345 | 0.0 | 1.7 | 0.01 | 0.08 | 0.08 | 90 | 1018.5 |
| 20260502183001 | 62 | 337 | 0.0 | 0.9 | 0.01 | 0.08 | 0.08 | 90 | 1014.1 |
| 20260502182503 | 62 | 327 | 0.0 | 0.9 | 0.01 | 0.08 | 0.08 | 90 | 1014.0 |
| 20260502182102 | 62 | 359 | 0.0 | 0.9 | 0.00 | 0.07 | 0.07 | 90 | 1014.0 |
| 20260502182002 | 62 | 346 | 0.0 | 0.9 | 0.00 | 0.07 | 0.07 | 90 | 1018.5 |
| 20260502181610 | 62 | 10 | 0.0 | 0.9 | 0.00 | 0.07 | 0.07 | 90 | 1013.9 |
| 20260502181501 | 62 | 360 | 0.0 | 0.9 | 0.00 | 0.07 | 0.07 | 90 | 1018.4 |
| 20260502181100 | 62 | 302 | 0.0 | 0.9 | 0.00 | 0.07 | 0.07 | 90 | 1014.0 |
| 20260502180600 | 62 | 302 | 0.0 | 0.9 | 0.00 | 0.07 | 0.07 | 90 | 1013.9 |
| 20260502180501 | 62 | 302 | 0.0 | 0.9 | 0.00 | 0.07 | 0.07 | 90 | 1014.0 |
| 20260502170503 | 64 | 269 | 0.9 | 2.6 | 0.03 | 0.07 | 0.07 | 85 | 1013.9 |
| 20260502170501 | 64 | 269 | 0.9 | 2.6 | 0.03 | 0.07 | 0.07 | 85 | 1018.4 |
| 20260502164100 | 63 | 48 | 0.9 | 4.3 | 0.03 | 0.06 | 0.06 | 86 | 1014.3 |
| 20260502164002 | 64 | 79 | 1.7 | 4.3 | 0.03 | 0.06 | 0.06 | 86 | 1018.8 |
| 20260502163600 | 64 | 99 | 1.7 | 4.3 | 0.03 | 0.06 | 0.06 | 86 | 1014.6 |
| 20260502163501 | 64 | 86 | 1.7 | 4.3 | 0.03 | 0.06 | 0.06 | 85 | 1014.6 |
| 20260502163101 | 64 | 137 | 0.9 | 3.5 | 0.03 | 0.06 | 0.06 | 86 | 1014.4 |
| 20260502163002 | 64 | 118 | 1.7 | 3.5 | 0.02 | 0.06 | 0.06 | 86 | 1018.9 |
| 20260502162601 | 64 | 91 | 1.7 | 3.5 | 0.02 | 0.06 | 0.06 | 85 | 1014.5 |
| 20260502162503 | 64 | 87 | 1.7 | 3.5 | 0.02 | 0.06 | 0.06 | 84 | 1019.0 |
| 20260502162101 | 64 | 103 | 0.9 | 3.5 | 0.02 | 0.06 | 0.06 | 85 | 1014.5 |
| 20260502162001 | 64 | 102 | 0.9 | 3.5 | 0.02 | 0.06 | 0.06 | 85 | 1019.1 |
| 20260502161601 | 63 | 97 | 0.9 | 1.7 | 0.02 | 0.05 | 0.05 | 83 | 1014.5 |
| 20260502161100 | 64 | 66 | 0.0 | 2.6 | 0.02 | 0.05 | 0.05 | 84 | 1014.6 |
| 20260502161004 | 64 | 62 | 0.9 | 2.6 | 0.02 | 0.05 | 0.05 | 83 | 1019.1 |
| 20260502160600 | 64 | 61 | 0.9 | 7.8 | 0.01 | 0.04 | 0.04 | 82 | 1014.8 |
| 20260502160501 | 64 | 345 | 2.6 | 11.3 | 0.01 | 0.04 | 0.04 | 82 | 1019.3 |
| 20260502152102 | 66 | 28 | 0.0 | 1.7 | 0.00 | 0.03 | 0.03 | 74 | 1014.7 |
| 20260502152002 | 66 | 71 | 0.0 | 1.7 | 0.00 | 0.03 | 0.03 | 74 | 1019.3 |
| 20260502151622 | 66 | 72 | 0.0 | 1.7 | 0.00 | 0.03 | 0.03 | 74 | 1014.8 |
| 20260502151505 | 66 | 72 | 0.0 | 1.7 | 0.00 | 0.03 | 0.03 | 75 | 1019.3 |
| 20260502151100 | 66 | 63 | 0.0 | 0.9 | 0.00 | 0.03 | 0.03 | 74 | 1014.8 |
| 20260502151001 | 66 | 64 | 0.0 | 1.7 | 0.00 | 0.03 | 0.03 | 74 | 1019.4 |
| 20260502150600 | 66 | 330 | 0.0 | 1.7 | 0.00 | 0.03 | 0.03 | 73 | 1014.9 |
| 20260502150501 | 66 | 330 | 0.9 | 1.7 | 0.00 | 0.03 | 0.03 | 73 | 1019.4 |
| 20260502130601 | 63 | 134 | 6.1 | 10.4 | 0.03 | 0.03 | 0.03 | 82 | 1016.1 |
| 20260502130501 | 63 | 93 | 6.1 | 10.4 | 0.03 | 0.03 | 0.03 | 82 | 1020.6 |
| 20260502123601 | 63 | 77 | 2.6 | 9.6 | 0.03 | 0.03 | 0.03 | 86 | 1016.2 |
| 20260502123501 | 63 | 82 | 5.2 | 10.4 | 0.03 | 0.03 | 0.03 | 86 | 1020.8 |
| 20260502123106 | 63 | 55 | 5.2 | 10.4 | 0.03 | 0.03 | 0.03 | 86 | 1016.4 |
| 20260502123003 | 63 | 70 | 6.1 | 10.4 | 0.03 | 0.03 | 0.03 | 85 | 1020.9 |
| 20260502122559 | 63 | 63 | 5.2 | 9.6 | 0.02 | 0.02 | 0.02 | 85 | 1016.3 |
| 20260502122501 | 63 | 84 | 5.2 | 9.6 | 0.02 | 0.02 | 0.02 | 85 | 1021.0 |
| 20260502122102 | 63 | 84 | 5.2 | 7.8 | 0.00 | 0.00 | 0.00 | 84 | 1016.7 |
| 20260502122001 | 64 | 65 | 3.5 | 7.8 | 0.00 | 0.00 | 0.00 | 84 | 1021.3 |
| 20260502121600 | 64 | 91 | 3.5 | 6.1 | 0.00 | 0.00 | 0.00 | 83 | 1016.9 |
| 20260502121501 | 64 | 86 | 1.7 | 6.1 | 0.00 | 0.00 | 0.00 | 83 | 1021.5 |
| 20260502121100 | 64 | 63 | 2.6 | 5.2 | 0.00 | 0.00 | 0.00 | 83 | 1017.0 |
| 20260502121003 | 64 | 21 | 1.7 | 5.2 | 0.00 | 0.00 | 0.00 | 83 | 1021.6 |
| 20260502120601 | 63 | 282 | 0.0 | 3.5 | 0.00 | 0.00 | 0.00 | 83 | 1017.1 |
| 20260502120501 | 63 | 281 | 0.9 | 3.5 | 0.00 | 0.00 | 0.00 | 83 | 1021.7 |
| 20260502115600 | 63 | 357 | 0.0 | 5.2 | 0.00 | 0.00 | 0.00 | 85 | 1017.1 |
| 20260502115501 | 63 | 338 | 1.7 | 5.2 | 0.00 | 0.00 | 0.00 | 85 | 1021.7 |
| 20260502115100 | 63 | 340 | 1.7 | 7.0 | 0.00 | 0.00 | 0.00 | 85 | 1017.0 |
| 20260502114603 | 63 | 295 | 1.7 | 7.0 | 0.00 | 0.00 | 0.00 | 86 | 1017.1 |
| 20260502114101 | 63 | 338 | 1.7 | 5.2 | 0.00 | 0.00 | 0.00 | 86 | 1017.3 |
| 20260502114002 | 63 | 359 | 2.6 | 5.2 | 0.00 | 0.00 | 0.00 | 86 | 1021.9 |
| 20260502113603 | 63 | 315 | 1.7 | 5.2 | 0.00 | 0.00 | 0.00 | 86 | 1017.3 |
| 20260502113501 | 63 | 323 | 3.5 | 5.2 | 0.00 | 0.00 | 0.00 | 86 | 1021.8 |
| 20260502113101 | 63 | 303 | 2.6 | 6.1 | 0.00 | 0.00 | 0.00 | 85 | 1017.3 |
| 20260502113003 | 63 | 318 | 3.5 | 6.1 | 0.00 | 0.00 | 0.00 | 85 | 1021.9 |
| 20260502112600 | 63 | 25 | 3.5 | 6.1 | 0.00 | 0.00 | 0.00 | 85 | 1017.4 |
| 20260502112501 | 63 | 348 | 4.3 | 7.8 | 0.00 | 0.00 | 0.00 | 85 | 1022.0 |
| 20260502112100 | 63 | 13 | 2.6 | 9.6 | 0.00 | 0.00 | 0.00 | 85 | 1017.4 |
| 20260502112001 | 63 | 321 | 4.3 | 9.6 | 0.00 | 0.00 | 0.00 | 85 | 1021.9 |
| 20260502111601 | 63 | 329 | 3.5 | 9.6 | 0.00 | 0.00 | 0.00 | 85 | 1017.4 |
| 20260502111501 | 63 | 330 | 3.5 | 9.6 | 0.00 | 0.00 | 0.00 | 85 | 1021.9 |
| 20260502111100 | 63 | 325 | 3.5 | 8.7 | 0.00 | 0.00 | 0.00 | 84 | 1017.4 |
| 20260502110600 | 63 | 350 | 3.5 | 8.7 | 0.00 | 0.00 | 0.00 | 84 | 1017.4 |
| 20260502110501 | 63 | 281 | 4.3 | 8.7 | 0.00 | 0.00 | 0.00 | 84 | 1021.9 |
| 20260502110104 | 64 | 351 | 4.3 | 8.7 | 0.00 | 0.00 | 0.00 | 83 | 1017.3 |
| 20260502110003 | 64 | 315 | 3.5 | 7.0 | 0.00 | 0.00 | 0.00 | 83 | 1017.3 |
| 20260502105601 | 64 | 296 | 3.5 | 9.6 | 0.00 | 0.00 | 0.00 | 82 | 1017.3 |
| 20260502105501 | 64 | 303 | 4.3 | 9.6 | 0.00 | 0.00 | 0.00 | 81 | 1021.9 |
| 20260502105100 | 64 | 278 | 4.3 | 13.0 | 0.00 | 0.00 | 0.00 | 81 | 1017.3 |
| 20260502105002 | 65 | 315 | 5.2 | 13.0 | 0.00 | 0.00 | 0.00 | 80 | 1021.8 |
| 20260502104600 | 66 | 281 | 4.3 | 13.0 | 0.00 | 0.00 | 0.00 | 78 | 1017.2 |
| 20260502104502 | 66 | 273 | 6.1 | 13.0 | 0.00 | 0.00 | 0.00 | 74 | 1021.8 |
| 20260502104100 | 67 | 250 | 6.1 | 13.0 | 0.00 | 0.00 | 0.00 | 72 | 1017.2 |
| 20260502104001 | 68 | 289 | 6.1 | 13.0 | 0.00 | 0.00 | 0.00 | 72 | 1021.7 |
| 20260502103600 | 71 | 271 | 6.1 | 11.3 | 0.00 | 0.00 | 0.00 | 59 | 1017.1 |
| 20260502103501 | 71 | 236 | 5.2 | 10.4 | 0.00 | 0.00 | 0.00 | 59 | 1021.6 |
| 20260502103108 | 71 | 273 | 5.2 | 12.2 | 0.00 | 0.00 | 0.00 | 59 | 1017.1 |
| 20260502103003 | 71 | 196 | 6.1 | 12.2 | 0.00 | 0.00 | 0.00 | 59 | 1021.6 |
| 20260502102601 | 71 | 226 | 5.2 | 12.2 | 0.00 | 0.00 | 0.00 | 60 | 1017.0 |
| 20260502102501 | 71 | 158 | 6.1 | 12.2 | 0.00 | 0.00 | 0.00 | 60 | 1021.6 |
| 20260502102101 | 71 | 236 | 5.2 | 12.2 | 0.00 | 0.00 | 0.00 | 59 | 1016.8 |
| 20260502102001 | 71 | 247 | 5.2 | 10.4 | 0.00 | 0.00 | 0.00 | 59 | 1021.4 |
| 20260502101637 | 71 | 238 | 3.5 | 7.8 | 0.00 | 0.00 | 0.00 | 59 | 1016.7 |
| 20260502101501 | 71 | 272 | 3.5 | 7.8 | 0.00 | 0.00 | 0.00 | 59 | 1021.1 |
| 20260502101103 | 71 | 149 | 3.5 | 8.7 | 0.00 | 0.00 | 0.00 | 59 | 1016.3 |
| 20260502101003 | 71 | 121 | 4.3 | 10.4 | 0.00 | 0.00 | 0.00 | 59 | 1020.9 |
| 20260502100600 | 71 | 89 | 4.3 | 10.4 | 0.00 | 0.00 | 0.00 | 59 | 1016.1 |
| 20260502100501 | 71 | 157 | 5.2 | 10.4 | 0.00 | 0.00 | 0.00 | 59 | 1020.6 |
| 20260502100121 | 71 | 126 | 4.3 | 11.3 | 0.00 | 0.00 | 0.00 | 59 | 1016.0 |
| 20260502091501 | 70 | 149 | 5.2 | 10.4 | 0.00 | 0.00 | 0.00 | 60 | 1020.6 |
| 20260502091100 | 70 | 127 | 4.3 | 7.8 | 0.00 | 0.00 | 0.00 | 60 | 1016.1 |
| 20260502090601 | 70 | 131 | 4.3 | 7.8 | 0.00 | 0.00 | 0.00 | 60 | 1016.2 |
| 20260502090501 | 70 | 52 | 4.3 | 7.8 | 0.00 | 0.00 | 0.00 | 61 | 1020.7 |
| 20260502080108 | 69 | 139 | 5.2 | 10.4 | 0.00 | 0.00 | 0.00 | 62 | 1015.9 |
| 20260502071503 | 69 | 120 | 8.7 | 16.5 | 0.00 | 0.00 | 0.00 | 61 | 1020.6 |
| 20260502071100 | 69 | 114 | 8.7 | 16.5 | 0.00 | 0.00 | 0.00 | 61 | 1016.0 |
| 20260502071001 | 69 | 130 | 9.6 | 16.5 | 0.00 | 0.00 | 0.00 | 61 | 1020.5 |
| 20260502070600 | 69 | 125 | 9.6 | 20.0 | 0.00 | 0.00 | 0.00 | 61 | 1016.0 |
| 20260502070501 | 69 | 116 | 9.6 | 20.0 | 0.00 | 0.00 | 0.00 | 61 | 1020.5 |
| 20260502070003 | 69 | 90 | 10.4 | 20.0 | 0.00 | 0.00 | 0.00 | 61 | 1016.1 |
| 20260502065601 | 69 | 108 | 9.6 | 20.0 | 0.00 | 0.00 | 0.00 | 61 | 1016.1 |
| 20260502065105 | 69 | 150 | 7.8 | 20.0 | 0.00 | 0.00 | 0.00 | 61 | 1016.0 |
| 20260502064603 | 69 | 44 | 10.4 | 19.1 | 0.00 | 0.00 | 0.00 | 61 | 1016.0 |
| 20260502064501 | 69 | 165 | 11.3 | 18.2 | 0.00 | 0.00 | 0.00 | 61 | 1020.3 |
| 20260502064100 | 69 | 108 | 12.2 | 18.2 | 0.00 | 0.00 | 0.00 | 61 | 1015.8 |
| 20260502063600 | 69 | 102 | 8.7 | 20.0 | 0.00 | 0.00 | 0.00 | 61 | 1015.8 |
| 20260502063501 | 69 | 118 | 10.4 | 20.0 | 0.00 | 0.00 | 0.00 | 61 | 1020.4 |
| 20260502063101 | 69 | 106 | 10.4 | 20.0 | 0.00 | 0.00 | 0.00 | 61 | 1015.8 |
| 20260502063002 | 69 | 117 | 10.4 | 20.0 | 0.00 | 0.00 | 0.00 | 61 | 1020.3 |
| 20260502062600 | 69 | 110 | 9.6 | 20.0 | 0.00 | 0.00 | 0.00 | 61 | 1015.6 |
| 20260502062502 | 69 | 92 | 9.6 | 16.5 | 0.00 | 0.00 | 0.00 | 61 | 1015.6 |
| 20260502062101 | 69 | 101 | 7.8 | 18.2 | 0.00 | 0.00 | 0.00 | 61 | 1015.8 |
| 20260502062003 | 69 | 115 | 8.7 | 18.2 | 0.00 | 0.00 | 0.00 | 61 | 1020.3 |
| 20260502061601 | 69 | 126 | 9.6 | 18.2 | 0.00 | 0.00 | 0.00 | 60 | 1015.8 |
| 20260502061501 | 69 | 116 | 7.8 | 16.5 | 0.00 | 0.00 | 0.00 | 60 | 1020.4 |
| 20260502061101 | 69 | 116 | 6.1 | 16.5 | 0.00 | 0.00 | 0.00 | 60 | 1015.9 |
| 20260502061001 | 69 | 135 | 8.7 | 16.5 | 0.00 | 0.00 | 0.00 | 60 | 1020.3 |
| 20260502060600 | 69 | 131 | 9.6 | 17.4 | 0.00 | 0.00 | 0.00 | 60 | 1015.8 |
| 20260502060501 | 69 | 111 | 9.6 | 17.4 | 0.00 | 0.00 | 0.00 | 60 | 1020.3 |
| 20260502060100 | 69 | 115 | 9.6 | 17.4 | 0.00 | 0.00 | 0.00 | 60 | 1015.7 |
| 20260502060004 | 69 | 85 | 9.6 | 17.4 | 0.00 | 0.00 | 0.00 | 60 | 1015.7 |
| 20260502055600 | 69 | 104 | 8.7 | 21.7 | 0.00 | 0.00 | 0.00 | 60 | 1015.8 |
| 20260502055501 | 69 | 153 | 9.6 | 21.7 | 0.00 | 0.00 | 0.00 | 60 | 1020.3 |
| 20260502055100 | 69 | 127 | 8.7 | 21.7 | 0.00 | 0.00 | 0.00 | 60 | 1015.8 |
| 20260502055001 | 69 | 105 | 9.6 | 21.7 | 0.00 | 0.00 | 0.00 | 60 | 1020.4 |
| 20260502054614 | 69 | 56 | 9.6 | 18.2 | 0.00 | 0.00 | 0.00 | 59 | 1015.8 |
| 20260502054501 | 69 | 119 | 8.7 | 18.2 | 0.00 | 0.00 | 0.00 | 59 | 1020.4 |
| 20260502054100 | 69 | 127 | 7.8 | 18.2 | 0.00 | 0.00 | 0.00 | 59 | 1015.9 |
| 20260502054001 | 69 | 82 | 8.7 | 18.2 | 0.00 | 0.00 | 0.00 | 59 | 1020.5 |
| 20260502053601 | 69 | 122 | 8.7 | 14.8 | 0.00 | 0.00 | 0.00 | 59 | 1016.0 |
| 20260502053502 | 69 | 84 | 7.8 | 14.8 | 0.00 | 0.00 | 0.00 | 59 | 1020.6 |
| 20260502053114 | 69 | 63 | 6.1 | 16.5 | 0.00 | 0.00 | 0.00 | 59 | 1015.9 |
| 20260502053001 | 69 | 146 | 7.0 | 16.5 | 0.00 | 0.00 | 0.00 | 59 | 1020.4 |
| 20260502052600 | 69 | 130 | 7.0 | 16.5 | 0.00 | 0.00 | 0.00 | 59 | 1015.8 |
| 20260502052501 | 69 | 134 | 7.8 | 14.8 | 0.00 | 0.00 | 0.00 | 59 | 1020.5 |
| 20260502052100 | 69 | 118 | 7.0 | 15.6 | 0.00 | 0.00 | 0.00 | 58 | 1015.9 |
| 20260502052003 | 69 | 90 | 7.0 | 15.6 | 0.00 | 0.00 | 0.00 | 58 | 1020.4 |
| 20260502051601 | 69 | 113 | 6.1 | 15.6 | 0.00 | 0.00 | 0.00 | 58 | 1015.8 |
| 20260502051501 | 69 | 105 | 7.0 | 13.9 | 0.00 | 0.00 | 0.00 | 58 | 1020.3 |
| 20260502051100 | 69 | 127 | 7.0 | 13.9 | 0.00 | 0.00 | 0.00 | 58 | 1015.7 |
| 20260502051001 | 69 | 165 | 7.0 | 13.9 | 0.00 | 0.00 | 0.00 | 58 | 1020.2 |
| 20260502050600 | 69 | 102 | 6.1 | 13.9 | 0.00 | 0.00 | 0.00 | 58 | 1015.6 |
| 20260502050501 | 69 | 193 | 6.1 | 13.9 | 0.00 | 0.00 | 0.00 | 58 | 1020.2 |
| 20260502050100 | 69 | 100 | 6.1 | 11.3 | 0.00 | 0.00 | 0.00 | 58 | 1015.6 |
| 20260502050009 | 69 | 89 | 6.1 | 14.8 | 0.00 | 0.00 | 0.00 | 58 | 1020.2 |
| 20260502050003 | 69 | 120 | 6.1 | 14.8 | 0.00 | 0.00 | 0.00 | 58 | 1015.6 |
| 20260502045601 | 69 | 110 | 4.3 | 14.8 | 0.00 | 0.00 | 0.00 | 58 | 1015.6 |
| 20260502045501 | 69 | 114 | 7.0 | 14.8 | 0.00 | 0.00 | 0.00 | 58 | 1020.2 |
| 20260502045101 | 69 | 121 | 6.1 | 16.5 | 0.00 | 0.00 | 0.00 | 58 | 1015.6 |
| 20260502045004 | 69 | 171 | 7.0 | 16.5 | 0.00 | 0.00 | 0.00 | 58 | 1020.1 |
| 20260502044602 | 69 | 134 | 7.8 | 16.5 | 0.00 | 0.00 | 0.00 | 58 | 1015.4 |
| 20260502044103 | 69 | 123 | 5.2 | 12.2 | 0.00 | 0.00 | 0.00 | 58 | 1015.6 |
| 20260502044001 | 69 | 77 | 4.3 | 12.2 | 0.00 | 0.00 | 0.00 | 58 | 1020.2 |
| 20260502043601 | 69 | 134 | 2.6 | 12.2 | 0.00 | 0.00 | 0.00 | 58 | 1015.7 |
| 20260502043108 | 69 | 143 | 5.2 | 17.4 | 0.00 | 0.00 | 0.00 | 57 | 1015.7 |
| 20260502043006 | 69 | 160 | 7.8 | 17.4 | 0.00 | 0.00 | 0.00 | 57 | 1020.2 |
| 20260502042600 | 69 | 115 | 7.8 | 17.4 | 0.00 | 0.00 | 0.00 | 57 | 1015.6 |
| 20260502042501 | 69 | 110 | 7.8 | 17.4 | 0.00 | 0.00 | 0.00 | 57 | 1020.1 |
| 20260502042101 | 69 | 134 | 5.2 | 20.0 | 0.00 | 0.00 | 0.00 | 57 | 1015.5 |
| 20260502042003 | 69 | 106 | 8.7 | 20.0 | 0.00 | 0.00 | 0.00 | 57 | 1020.0 |
| 20260502041601 | 69 | 118 | 10.4 | 19.1 | 0.00 | 0.00 | 0.00 | 57 | 1015.5 |
| 20260502041501 | 69 | 94 | 8.7 | 19.1 | 0.00 | 0.00 | 0.00 | 57 | 1020.0 |
| 20260502041100 | 69 | 108 | 7.0 | 15.6 | 0.00 | 0.00 | 0.00 | 57 | 1015.5 |
| 20260502041001 | 69 | 97 | 7.0 | 15.6 | 0.00 | 0.00 | 0.00 | 57 | 1020.0 |
| 20260502040600 | 69 | 139 | 7.0 | 15.6 | 0.00 | 0.00 | 0.00 | 57 | 1015.4 |
| 20260502040501 | 69 | 126 | 7.0 | 12.2 | 0.00 | 0.00 | 0.00 | 57 | 1020.1 |
| 20260502040100 | 69 | 105 | 6.1 | 12.2 | 0.00 | 0.00 | 0.00 | 57 | 1015.4 |
| 20260502040005 | 69 | 124 | 7.0 | 12.2 | 0.00 | 0.00 | 0.00 | 57 | 1020.0 |
| 20260502040003 | 69 | 124 | 7.0 | 12.2 | 0.00 | 0.00 | 0.00 | 57 | 1015.4 |
| 20260502035600 | 69 | 76 | 5.2 | 12.2 | 0.00 | 0.00 | 0.00 | 56 | 1015.3 |
| 20260502035103 | 70 | 122 | 7.0 | 12.2 | 0.00 | 0.00 | 0.00 | 56 | 1015.5 |
| 20260502035002 | 70 | 122 | 7.0 | 11.3 | 0.00 | 0.00 | 0.00 | 56 | 1019.9 |
| 20260502034600 | 70 | 99 | 6.1 | 13.9 | 0.00 | 0.00 | 0.00 | 56 | 1015.4 |
| 20260502034502 | 70 | 155 | 6.1 | 13.9 | 0.00 | 0.00 | 0.00 | 56 | 1020.0 |
| 20260502034101 | 70 | 89 | 5.2 | 13.9 | 0.00 | 0.00 | 0.00 | 56 | 1015.4 |
| 20260502034001 | 70 | 132 | 6.1 | 13.9 | 0.00 | 0.00 | 0.00 | 56 | 1020.0 |
| 20260502033600 | 70 | 96 | 6.1 | 11.3 | 0.00 | 0.00 | 0.00 | 56 | 1015.4 |
| 20260502033501 | 70 | 132 | 5.2 | 11.3 | 0.00 | 0.00 | 0.00 | 56 | 1020.0 |
| 20260502033106 | 70 | 84 | 5.2 | 13.0 | 0.00 | 0.00 | 0.00 | 56 | 1015.5 |
| 20260502033001 | 70 | 79 | 5.2 | 13.0 | 0.00 | 0.00 | 0.00 | 56 | 1020.0 |
| 20260502032600 | 70 | 142 | 5.2 | 13.0 | 0.00 | 0.00 | 0.00 | 55 | 1015.5 |
| 20260502032503 | 70 | 122 | 6.1 | 13.0 | 0.00 | 0.00 | 0.00 | 55 | 1020.1 |
| 20260502032100 | 70 | 103 | 7.0 | 12.2 | 0.00 | 0.00 | 0.00 | 55 | 1015.5 |
| 20260502032001 | 70 | 74 | 6.1 | 13.9 | 0.00 | 0.00 | 0.00 | 55 | 1020.0 |
| 20260502031604 | 70 | 99 | 5.2 | 13.9 | 0.00 | 0.00 | 0.00 | 55 | 1015.5 |
| 20260502031503 | 70 | 93 | 5.2 | 13.9 | 0.00 | 0.00 | 0.00 | 55 | 1020.1 |
| 20260502031100 | 70 | 84 | 5.2 | 13.0 | 0.00 | 0.00 | 0.00 | 55 | 1015.5 |
| 20260502031001 | 70 | 201 | 5.2 | 13.0 | 0.00 | 0.00 | 0.00 | 55 | 1020.0 |
| 20260502030601 | 70 | 95 | 4.3 | 13.0 | 0.00 | 0.00 | 0.00 | 55 | 1015.5 |
| 20260502030002 | 70 | 99 | 6.1 | 13.9 | 0.00 | 0.00 | 0.00 | 54 | 1015.6 |
| 20260502025600 | 70 | 113 | 7.0 | 13.9 | 0.00 | 0.00 | 0.00 | 54 | 1015.6 |
| 20260502025100 | 70 | 133 | 5.2 | 14.8 | 0.00 | 0.00 | 0.00 | 54 | 1015.7 |
| 20260502025001 | 70 | 181 | 7.0 | 14.8 | 0.00 | 0.00 | 0.00 | 54 | 1020.2 |
| 20260502024600 | 70 | 77 | 7.0 | 13.9 | 0.00 | 0.00 | 0.00 | 54 | 1015.6 |
| 20260502024502 | 70 | 172 | 6.1 | 13.0 | 0.00 | 0.00 | 0.00 | 54 | 1015.7 |
| 20260502024100 | 70 | 30 | 6.1 | 13.9 | 0.00 | 0.00 | 0.00 | 55 | 1015.6 |
| 20260502024001 | 70 | 137 | 7.0 | 13.9 | 0.00 | 0.00 | 0.00 | 55 | 1020.2 |
| 20260502023600 | 70 | 122 | 7.0 | 14.8 | 0.00 | 0.00 | 0.00 | 54 | 1015.6 |
| 20260502023503 | 70 | 152 | 7.0 | 14.8 | 0.00 | 0.00 | 0.00 | 54 | 1020.2 |
| 20260502023112 | 70 | 98 | 6.1 | 14.8 | 0.00 | 0.00 | 0.00 | 54 | 1015.6 |
| 20260502022601 | 70 | 91 | 6.1 | 10.4 | 0.00 | 0.00 | 0.00 | 54 | 1015.7 |
| 20260502022501 | 70 | 127 | 7.0 | 11.3 | 0.00 | 0.00 | 0.00 | 54 | 1020.2 |
| 20260502022103 | 70 | 136 | 5.2 | 14.8 | 0.00 | 0.00 | 0.00 | 54 | 1015.7 |
| 20260502022002 | 70 | 104 | 6.1 | 14.8 | 0.00 | 0.00 | 0.00 | 54 | 1020.3 |
| 20260502021600 | 70 | 63 | 5.2 | 14.8 | 0.00 | 0.00 | 0.00 | 54 | 1015.7 |
| 20260502021503 | 70 | 146 | 6.1 | 14.8 | 0.00 | 0.00 | 0.00 | 54 | 1020.3 |
| 20260502021100 | 70 | 148 | 6.1 | 14.8 | 0.00 | 0.00 | 0.00 | 54 | 1015.7 |
| 20260502020600 | 70 | 138 | 5.2 | 14.8 | 0.00 | 0.00 | 0.00 | 54 | 1015.7 |
| 20260502020501 | 70 | 108 | 6.1 | 14.8 | 0.00 | 0.00 | 0.00 | 54 | 1020.2 |
| 20260502020003 | 70 | 136 | 6.1 | 14.8 | 0.00 | 0.00 | 0.00 | 54 | 1015.6 |
| 20260502015600 | 70 | 81 | 6.1 | 15.6 | 0.00 | 0.00 | 0.00 | 54 | 1015.7 |
| 20260502015105 | 70 | 118 | 7.0 | 16.5 | 0.00 | 0.00 | 0.00 | 54 | 1015.7 |
| 20260502014605 | 70 | 147 | 7.8 | 16.5 | 0.00 | 0.00 | 0.00 | 55 | 1015.6 |
| 20260502014100 | 70 | 124 | 6.1 | 13.9 | 0.00 | 0.00 | 0.00 | 55 | 1015.7 |
| 20260502013602 | 70 | 108 | 7.0 | 15.6 | 0.00 | 0.00 | 0.00 | 55 | 1015.6 |
| 20260502013501 | 70 | 82 | 7.8 | 16.5 | 0.00 | 0.00 | 0.00 | 55 | 1020.2 |
| 20260502013100 | 70 | 100 | 7.8 | 16.5 | 0.00 | 0.00 | 0.00 | 55 | 1015.6 |
| 20260502013004 | 70 | 98 | 7.8 | 16.5 | 0.00 | 0.00 | 0.00 | 55 | 1020.2 |
| 20260502013001 | 70 | 98 | 7.0 | 16.5 | 0.00 | 0.00 | 0.00 | 55 | 1015.7 |
| 20260502012600 | 70 | 105 | 7.0 | 17.4 | 0.00 | 0.00 | 0.00 | 55 | 1015.7 |
| 20260502012501 | 70 | 138 | 7.0 | 17.4 | 0.00 | 0.00 | 0.00 | 55 | 1020.2 |
| 20260502012100 | 70 | 145 | 7.8 | 16.5 | 0.00 | 0.00 | 0.00 | 55 | 1015.7 |
| 20260502012001 | 70 | 148 | 7.8 | 16.5 | 0.00 | 0.00 | 0.00 | 55 | 1020.3 |
| 20260502011605 | 71 | 115 | 6.1 | 16.5 | 0.00 | 0.00 | 0.00 | 55 | 1015.7 |
| 20260502011101 | 71 | 90 | 5.2 | 18.2 | 0.00 | 0.00 | 0.00 | 55 | 1016.0 |
| 20260502011002 | 71 | 110 | 7.8 | 18.2 | 0.00 | 0.00 | 0.00 | 55 | 1020.5 |
| 20260502010603 | 71 | 93 | 9.6 | 20.9 | 0.00 | 0.00 | 0.00 | 55 | 1016.0 |
| 20260502010100 | 71 | 121 | 9.6 | 20.9 | 0.00 | 0.00 | 0.00 | 55 | 1015.9 |
| 20260502010005 | 71 | 105 | 9.6 | 20.9 | 0.00 | 0.00 | 0.00 | 55 | 1020.5 |
| 20260502005504 | 71 | 134 | 8.7 | 20.0 | 0.00 | 0.00 | 0.00 | 54 | 1020.6 |
| 20260502005502 | 71 | 134 | 8.7 | 20.0 | 0.00 | 0.00 | 0.00 | 54 | 1016.1 |
| 20260502005002 | 71 | 146 | 9.6 | 20.0 | 0.00 | 0.00 | 0.00 | 55 | 1016.1 |
| 20260502004502 | 71 | 32 | 7.8 | 14.8 | 0.00 | 0.00 | 0.00 | 55 | 1016.1 |
| 20260502004003 | 71 | 98 | 7.8 | 14.8 | 0.00 | 0.00 | 0.00 | 55 | 1016.2 |
| 20260502003502 | 71 | 131 | 6.1 | 13.9 | 0.00 | 0.00 | 0.00 | 55 | 1016.2 |
| 20260502003004 | 71 | 146 | 7.0 | 13.9 | 0.00 | 0.00 | 0.00 | 55 | 1020.8 |
| 20260502003001 | 71 | 146 | 6.1 | 13.9 | 0.00 | 0.00 | 0.00 | 55 | 1016.3 |
| 20260502002503 | 71 | 123 | 7.0 | 15.6 | 0.00 | 0.00 | 0.00 | 55 | 1020.9 |
| 20260502002501 | 71 | 123 | 7.0 | 15.6 | 0.00 | 0.00 | 0.00 | 55 | 1016.3 |
| 20260502002003 | 71 | 72 | 7.0 | 15.6 | 0.00 | 0.00 | 0.00 | 55 | 1021.0 |
| 20260502001502 | 71 | 104 | 7.0 | 14.8 | 0.00 | 0.00 | 0.00 | 54 | 1016.4 |
| 20260502001015 | 71 | 189 | 7.0 | 14.8 | 0.00 | 0.00 | 0.00 | 54 | 1021.1 |
| 20260502001001 | 71 | 121 | 7.0 | 14.8 | 0.00 | 0.00 | 0.00 | 54 | 1016.6 |
| 20260502000600 | 71 | 78 | 6.1 | 14.8 | 0.00 | 0.00 | 0.00 | 54 | 1016.6 |
| 20260502000501 | 71 | 165 | 7.0 | 14.8 | 0.00 | 0.00 | 0.00 | 54 | 1021.0 |
| 20260502000105 | 71 | 132 | 7.8 | 14.8 | 0.00 | 0.00 | 0.00 | 54 | 1016.6 |
| 20260502000005 | 71 | 117 | 7.8 | 14.8 | 0.00 | 0.00 | 0.00 | 54 | 1021.1 |
| 20260502000002 | 71 | 117 | 7.0 | 14.8 | 0.00 | 0.00 | 0.00 | 54 | 1016.6 |
| 20260501235602 | 72 | 151 | 6.1 | 12.2 | 0.00 | 0.00 | 0.00 | 54 | 1016.7 |
| 20260501235502 | 72 | 129 | 7.0 | 13.9 | 0.00 | 0.00 | 0.00 | 54 | 1021.2 |
| 20260501235101 | 71 | 100 | 6.1 | 13.9 | 0.00 | 0.00 | 0.00 | 54 | 1016.8 |
| 20260501235001 | 72 | 117 | 7.0 | 13.9 | 0.00 | 0.00 | 0.00 | 54 | 1021.3 |
| 20260501234601 | 72 | 125 | 6.1 | 13.9 | 0.00 | 0.00 | 0.00 | 54 | 1016.8 |
| 20260501234100 | 72 | 101 | 7.0 | 13.0 | 0.00 | 0.00 | 0.00 | 54 | 1016.8 |
| 20260501234004 | 72 | 113 | 7.0 | 13.0 | 0.00 | 0.00 | 0.00 | 54 | 1021.4 |
| 20260501233601 | 72 | 70 | 7.0 | 14.8 | 0.00 | 0.00 | 0.00 | 54 | 1016.7 |
| 20260501233501 | 72 | 155 | 7.0 | 14.8 | 0.00 | 0.00 | 0.00 | 54 | 1021.3 |
| 20260501233101 | 71 | 110 | 7.8 | 14.8 | 0.00 | 0.00 | 0.00 | 54 | 1016.9 |
| 20260501232600 | 72 | 139 | 5.2 | 13.9 | 0.00 | 0.00 | 0.00 | 54 | 1016.8 |
| 20260501232504 | 72 | 106 | 7.0 | 13.9 | 0.00 | 0.00 | 0.00 | 54 | 1021.4 |
| 20260501232103 | 72 | 107 | 7.0 | 18.2 | 0.00 | 0.00 | 0.00 | 54 | 1016.9 |
| 20260501232002 | 72 | 120 | 7.8 | 18.2 | 0.00 | 0.00 | 0.00 | 54 | 1021.5 |
| 20260501231604 | 72 | 97 | 9.6 | 18.2 | 0.00 | 0.00 | 0.00 | 54 | 1016.8 |
| 20260501231510 | 72 | 63 | 7.8 | 18.2 | 0.00 | 0.00 | 0.00 | 54 | 1021.4 |
| 20260501231100 | 72 | 99 | 6.1 | 13.0 | 0.00 | 0.00 | 0.00 | 54 | 1016.9 |
| 20260501231002 | 72 | 91 | 6.1 | 12.2 | 0.00 | 0.00 | 0.00 | 54 | 1021.5 |
| 20260501230600 | 72 | 127 | 4.3 | 12.2 | 0.00 | 0.00 | 0.00 | 55 | 1016.9 |
| 20260501230501 | 72 | 103 | 5.2 | 12.2 | 0.00 | 0.00 | 0.00 | 55 | 1021.4 |
| 20260501230004 | 72 | 116 | 5.2 | 13.0 | 0.00 | 0.00 | 0.00 | 55 | 1016.9 |
| 20260501225503 | 72 | 90 | 5.2 | 13.0 | 0.00 | 0.00 | 0.00 | 55 | 1021.4 |
| 20260501225003 | 72 | 122 | 4.3 | 9.6 | 0.00 | 0.00 | 0.00 | 56 | 1021.4 |
| 20260501224602 | 72 | 89 | 3.5 | 13.0 | 0.00 | 0.00 | 0.00 | 56 | 1016.9 |
| 20260501224502 | 72 | 101 | 3.5 | 13.0 | 0.00 | 0.00 | 0.00 | 56 | 1016.9 |
| 20260501224003 | 72 | 112 | 6.1 | 13.0 | 0.00 | 0.00 | 0.00 | 56 | 1021.5 |
| 20260501223504 | 72 | 99 | 5.2 | 8.7 | 0.00 | 0.00 | 0.00 | 56 | 1021.6 |
| 20260501223005 | 72 | 129 | 4.3 | 13.9 | 0.00 | 0.00 | 0.00 | 56 | 1021.6 |
| 20260501223002 | 72 | 129 | 284.2 | 13.9 | 0.00 | 0.00 | 0.00 | 56 | 1017.0 |
| 20260501222505 | 0 | 284.2 | 221.6 | 0.00 | 0.00 | 0.00 | 1017.1 | ||
| 20260501222502 | 0 | 0.0 | 0.0 | 0.00 | 0.00 | 0.00 | 1021.6 | ||
| 20260501222102 | 0 | 284.2 | 221.6 | 0.00 | 0.00 | 0.00 | 1017.1 | ||
| 20260501222001 | 0 | 0.0 | 0.0 | 0.00 | 0.00 | 0.00 | 1021.7 | ||
| 20260501221503 | 0 | 0.0 | 0.0 | 0.00 | 0.00 | 0.00 | 1021.7 | ||
| 20260501221501 | 0 | 284.2 | 221.6 | 0.00 | 0.00 | 0.00 | 1017.2 | ||
| 20260501221005 | 72 | 98 | 4.3 | 7.8 | 0.00 | 0.00 | 0.00 | 56 | 1021.8 |
| 20260501221001 | 72 | 98 | 3.5 | 7.8 | 0.00 | 0.00 | 0.00 | 56 | 1017.2 |
| 20260501220502 | 72 | 98 | 4.3 | 7.8 | 0.00 | 0.00 | 0.00 | 56 | 1021.8 |
| 20260501220010 | 72 | 98 | 3.5 | 7.8 | 0.00 | 0.00 | 0.00 | 56 | 1017.3 |
| 20260501215600 | 72 | 174 | 2.6 | 7.8 | 0.00 | 0.00 | 0.00 | 56 | 1017.3 |
| 20260501215503 | 72 | 101 | 2.6 | 7.8 | 0.00 | 0.00 | 0.00 | 57 | 1017.3 |
| 20260501215004 | 72 | 90 | 2.6 | 7.8 | 0.00 | 0.00 | 0.00 | 57 | 1022.1 |
| 20260501214501 | 71 | 130 | 2.6 | 7.8 | 0.00 | 0.00 | 0.00 | 58 | 1017.5 |
| 20260501214002 | 71 | 113 | 2.6 | 6.1 | 0.00 | 0.00 | 0.00 | 59 | 1022.1 |
| 20260501213502 | 71 | 100 | 2.6 | 6.1 | 0.00 | 0.00 | 0.00 | 59 | 1017.4 |
| 20260501213004 | 71 | 105 | 1.7 | 4.3 | 0.00 | 0.00 | 0.00 | 59 | 1022.0 |
| 20260501213002 | 71 | 105 | 1.7 | 4.3 | 0.00 | 0.00 | 0.00 | 59 | 1017.5 |
| 20260501212503 | 72 | 95 | 1.7 | 6.1 | 0.00 | 0.00 | 0.00 | 59 | 1021.9 |
| 20260501212004 | 72 | 125 | 1.7 | 6.1 | 0.00 | 0.00 | 0.00 | 58 | 1022.0 |
| 20260501212002 | 72 | 125 | 1.7 | 6.1 | 0.00 | 0.00 | 0.00 | 58 | 1017.4 |
| 20260501211502 | 72 | 57 | 1.7 | 5.2 | 0.00 | 0.00 | 0.00 | 58 | 1017.4 |
| 20260501211004 | 72 | 115 | 1.7 | 4.3 | 0.00 | 0.00 | 0.00 | 58 | 1022.0 |
| 20260501211001 | 72 | 115 | 1.7 | 4.3 | 0.00 | 0.00 | 0.00 | 58 | 1017.5 |